Location: Baix
(44.7118°N, 4.7648°E)
Time: 06:22:04
(UTC+00:00)

Vanguard 1 - Pass Details

Date: 04 December 2020
Orbit: 648 x 3834 km, 34.3° (Epoch: 21 January)

Event Time Altitude Azimuth Distance (km) Brightness Sun altitude
Rises 10:20:38 0° 262° (W) 5,024 13.6 21.0°
Reaches altitude 10° 10:25:49 10° 240° (WSW) 4,636 13.7 21.3°
Maximum altitude 10:32:07 15° 212° (SSW) 4,902 14.4 21.6°
Drops below altitude 10° 10:39:59 10° 185° (S) 5,989 15.7 21.9°
Sets 10:49:04 0° 166° (SSE) 7,588 16.1 22.3°
